Regional Weather Roundup
Issued by NWS Charleston, WV

Home | Current Version | Previous Version | Graphics & Text | Print | Product List | Glossary On
Versions: 1 2 3 4 5 6 7 8 9 10 11 12 13 14 15 16 17 18 19 20 21 22 23 24 25 26 27 28 29 30 31 32 33 34 35 36 37 38 39 40 41 42 43 44 45 46 47 48 49 50
000
ASUS41 KRLX 051410
RWRRLX
West Virginia Regional Weather Roundup
National Weather Service Charleston WV
1000 AM EDT SAT SEP 05 2015

Note: "fair" indicates few or no clouds below 12,000 feet with no
significant weather and/or obstructions to visibility.

WVZ003-051500-
Northern Panhandle of West Virginia

CITY           SKY/WX    TMP DP  RH WIND       PRES   REMARKS
WHEELING       SUNNY     75  66  73 SE6       30.21R
$$

WVZ009-051500-
Northwest West Virginia

CITY           SKY/WX    TMP DP  RH WIND       PRES   REMARKS
PARKERSBURG    SUNNY     76  67  73 S3        30.21S
$$

WVZ006-051500-
Western West Virginia

CITY           SKY/WX    TMP DP  RH WIND       PRES   REMARKS
HUNTINGTON     SUNNY     75  67  76 E5        30.17S
$$

WVZ015-051500-
West Central West Virginia

CITY           SKY/WX    TMP DP  RH WIND       PRES   REMARKS
CHARLESTON     MOSUNNY   77  66  68 SE5       30.19R
$$

WVZ022-031-051500-
North Central West Virginia

CITY           SKY/WX    TMP DP  RH WIND       PRES   REMARKS
CLARKSBURG     SUNNY     78  65  63 VRB3      30.22R
MORGANTOWN     SUNNY     79  64  60 SE7       30.24R
$$

WVZ025-035-042-045-051500-
Southern West Virginia

CITY           SKY/WX    TMP DP  RH WIND       PRES   REMARKS
BECKLEY        MOSUNNY   71  64  78 SE13      30.27R
LOGAN            N/A     75  66  73 CALM      30.21R
BLUEFIELD      PTSUNNY   70  62  76 SE8       30.29S
LEWISBURG      MOSUNNY   72  66  81 N3        30.28R
$$

WVZ047-051500-
Northern Mountains of West Virginia

CITY           SKY/WX    TMP DP  RH WIND       PRES   REMARKS
ELKINS         MOSUNNY   66  63  90 CALM      30.27S
$$

WVZ052-051500-
Eastern Panhandle of West Virginia

CITY           SKY/WX    TMP DP  RH WIND       PRES   REMARKS
MARTINSBURG    PTSUNNY   74  67  78 E6        30.26S
PETERSBURG     MOSUNNY   71  68  89 CALM      30.25F FOG
$$


USA.gov is the U.S. government's official web portal to all federal, state and local government web resources and services.